User: anonymous   Login
Location: Unspecified
(0.0000°N, 0.0000°E)
Time: 23:21:50
(UTC+00:00)
Language:

Nova 1 - Orbit

View from above orbital plane
View from above orbital plane
View from above satellite
View from above satellite

Ground track
Ground track

The orbit data is extracted from the following two-line orbital elements,

1 12458U 81044A   21023.49032149  .00000008  00000-0 -27177-5 0  9995
2 12458  89.9094 112.7347 0013352 350.0606  20.9726 13.23028632915911
Epoch (UTC): 23 January 2021 11:46:03
Eccentricity: 0.0013352
inclination: 89.9094°
perigee height: 1163 km
apogee height: 1183 km
right ascension of ascending node: 112.7347°
argument of perigee: 350.0606°
revolutions per day: 13.23028632
mean anomaly at epoch: 20.9726°
orbit number at epoch: 91591

The dashed part of the orbit path shows where the satellite is in the earth's shadow,  

DLR